Location: Rooftop Observatory
(39.0308°N, 87.1711°W)
Time: 18:38:24
(UTC-06:00)

Daily predictions for brighter satellites

Satellite Brightness Start Highest point End
(mag) Time Altitude Azimuth Time Altitude Azimuth Time Altitude Azimuth
Cosmos 1378 Rocket 3.7 17:54:11 10° N 17:58:30 79° W 18:02:48 10° S
Cosmos 44 3.7 17:55:49 10° NNW 17:59:53 34° NE 18:03:49 10° ESE
DELTA 2 R/B (1) 3.7 17:54:26 10° W 18:00:04 86° N 18:05:42 10° E
YAOGAN 1 4.3 17:57:27 10° SSW 18:01:30 40° W 18:05:35 10° NNW
Cosmos 1908 Rocket 4.5 17:58:15 10° SSW 18:02:31 54° W 18:06:50 10° N
NOSS 2-2 (C) 3.6 18:01:07 10° SW 18:05:06 80° NW 18:09:40 10° NNE
Cosmos 1782 Rocket 3.7 18:03:05 10° S 18:07:29 86° W 18:11:59 10° N
Cosmos 1812 3.1 18:07:56 10° N 18:11:37 41° E 18:15:16 10° SSE
Cosmos 1992 Rocket 4.0 18:08:31 10° NNW 18:13:45 73° ENE 18:18:58 10° SSE
CZ-3C R/B 4.0 18:08:27 10° SW 18:13:46 13° SSW 18:16:49 10° S
Cosmos 407 Rocket 3.9 18:09:41 10° S 18:14:34 42° ESE 18:19:32 10° NNE
Cosmos 1709 Rocket 4.5 18:10:58 10° SSE 18:16:35 36° E 18:22:09 10° NNE
Okean 2 Rocket 3.2 18:15:46 10° S 18:20:14 85° W 18:24:42 10° N
COSMO-SKYMED 1 3.5 18:16:18 10° N 18:20:31 52° WNW 18:24:44 10° SSW
ERBS 2.7 18:18:37 10° NW 18:22:05 67° SW 18:25:30 10° SSE
ATLAS 2A CENTAUR R/B 3.6 18:24:06 10° S 18:25:30 12° SSE 18:27:31 10° SE
ATLAS CENTAUR R/B 4.3 18:23:56 10° WNW 18:25:53 12° NW 18:27:47 10° NNW
FREGAT/IRIS 2.6 18:25:49 10° SSE 18:28:51 63° ENE 18:31:55 10° N
Cosmos 2360 Rocket 3.3 18:25:11 10° N 18:29:46 25° NE 18:32:44 16° E
Cosmos 1980 Rocket 3.4 18:25:18 10° NW 18:30:43 47° WSW 18:36:07 10° S
Cosmos 1745 Rocket 4.3 18:27:54 10° SSW 18:34:14 73° W 18:40:32 10° N
METEOR-M 4.2 18:29:11 10° SSE 18:34:32 86° WSW 18:39:55 10° NNW
Cosmos 1190 Rocket 3.9 18:32:54 10° SSW 18:38:05 84° ESE 18:43:18 10° NNE
Cosmos 2151 Rocket 3.5 18:33:57 10° S 18:38:25 70° E 18:42:55 10° NNE
NOAA 12 4.3 18:33:13 10° S 18:38:31 77° WSW 18:43:52 10° NNW
Meteor 1-18 Rocket 4.2 18:33:35 10° N 18:39:10 86° W 18:44:46 10° S
ALOS 2.3 18:37:18 10° SSE 18:41:53 59° ENE 18:46:29 10° N
SL-8 R/B 4.1 18:37:54 10° WNW 18:42:40 62° SW 18:47:05 12° SE
SJ-6B 2.9 18:38:48 10° SSE 18:42:52 86° W 18:46:53 10° NNW
GEOS 3 Rocket 3.8 18:37:55 10° NNE 18:43:10 79° NW 18:48:26 10° SW
TSX-5 3.8 18:41:24 10° S 18:44:23 34° ESE 18:44:47 33° E
Cosmos 1140 Rocket 4.1 18:40:55 10° SSE 18:45:26 33° E 18:49:24 13° NE
Cosmos 1238 Rocket 3.9 18:45:22 10° NNE 18:46:37 19° NNE 18:46:37 19° NNE
Spot 2 Rocket 3.5 18:44:47 10° SSE 18:49:40 54° ENE 18:54:37 10° N
Okean 1 Rocket 3.7 18:46:53 10° SSE 18:50:53 33° E 18:54:55 10° NNE
Gbstr 26 Del rocket 4.2 18:48:17 10° S 18:50:42 20° SE 18:50:42 20° SE
FengYun 1-2 T 4.1 18:45:43 10° SSE 18:51:10 71° ENE 18:56:38 10° N
Cosmos 2292 Rocket 3.9 18:48:26 10° S 18:52:58 83° E 18:59:10 10° N
Cosmos 1461 2.8 18:50:49 10° NNW 18:54:47 58° ENE 18:56:31 31° ESE
Meteor 1-19 Rocket 4.4 18:51:30 10° N 18:56:59 48° ENE 19:02:30 10° SSE
SL-16 R/B 2.3 18:55:27 10° NNW 19:01:08 76° WSW 19:06:46 10° SSE
Helios 1A 3.4 19:02:04 38° ENE 19:02:04 38° ENE 19:05:52 10° N
Cosmos 614 Rocket 4.4 18:57:51 10° SSE 19:02:26 35° E 19:02:46 34° E
Cosmos 1633 2.4 18:58:58 10° S 19:02:37 69° E 19:06:18 10° NNE
HJ-1C 3.6 19:00:44 10° S 19:04:06 69° WSW 19:07:28 10° NNW
Envisat 4.4 19:07:28 21° NE 19:07:28 21° NE 19:10:02 10° NNE
ATLAS CENTAUR R/B 4.4 19:04:16 10° SSE 19:04:45 11° SSE 19:04:45 11° SSE
Cosmos 1954 Rocket 3.8 19:01:43 10° S 19:06:52 72° ESE 19:12:04 10° NNE
Meteor 1-13 Rocket 4.1 19:03:27 10° N 19:09:00 71° E 19:14:35 10° SSE
CENTAUR R/B 4.2 19:01:41 10° NW 19:09:11 45° WSW 19:16:58 10° S
Okean 1 4.3 19:09:57 10° NNW 19:13:53 49° W 19:17:48 10° SSW
Cosmos 1340 2.6 19:12:36 10° N 19:16:25 84° W 19:18:12 30° S
Cosmos 2322 Rocket 3.0 19:15:03 10° NNW 19:20:27 50° WSW 19:25:50 10° S
CZ-2D R/B 3.1 19:22:39 85° NE 19:22:39 85° NE 19:26:25 10° N
Tiangong 2 2.3 19:20:48 10° WNW 19:22:55 40° WNW 19:22:55 40° WNW
Meteor 1-23 Rocket 4.4 19:20:22 10° N 19:26:01 50° ENE 19:26:15 50° E
Resurs 01 Rocket 2.3 19:24:31 10° S 19:28:49 53° W 19:33:09 10° NNW
Cosmos 2322 3.6 19:24:04 10° NNW 19:29:46 64° ENE 19:30:39 56° ESE
Cosmos 1818 4.1 19:25:58 10° SW 19:31:18 57° NW 19:35:28 17° NNE
Helios 1B rocket 3.2 19:33:19 42° SSW 19:33:19 42° SSW 19:36:07 10° SSW
H-2A R/B 3.7 19:33:51 22° SSW 19:35:53 44° W 19:39:28 10° NNW
Cosmos 2181 Rocket 4.4 19:32:23 10° NNW 19:38:31 65° W 19:44:45 10° S
Meteor 2-4 Rocket 3.5 19:33:34 10° N 19:39:12 80° E 19:40:14 59° SSE
COSMOS 2428 3.5 19:35:05 10° N 19:39:00 35° NNE 19:39:00 35° NNE
Cosmos 2327 Rocket 4.3 19:34:49 10° S 19:40:56 70° E 19:47:11 10° NNE
Meteor 1-11 Rocket 4.1 19:35:53 10° SSW 19:41:35 66° WNW 19:47:26 10° N
BREEZE-M DEB (TANK) 4.1 19:40:49 10° NW 19:44:26 55° NE 19:44:45 55° NE
DELTA 2 R/B (1) 3.4 19:40:59 10° W 19:46:37 82° SSW 19:46:45 81° SSE
BREEZE-M DEB (TANK) 4.5 19:43:13 10° WSW 19:45:04 24° WSW 19:45:04 24° WSW
Cosmos 2237 Rocket 4.4 19:51:16 10° N 19:52:08 13° NNE 19:52:08 13° NNE
Cosmos 2184 Rocket 4.0 19:51:59 10° S 19:58:19 83° W 20:04:39 10° N
Cosmos 2074 Rocket 4.0 19:53:39 10° S 19:59:53 78° W 20:06:11 10° N
Cosmos 2219 4.5 19:59:35 10° SSW 20:02:18 29° SSW 20:02:18 29° SSW
BREEZE-M DEB (TANK) 4.1 20:05:25 10° WNW 20:06:55 33° WNW 20:06:55 33° WNW
Cosmos 2360 Rocket 3.0 20:08:35 10° NW 20:13:59 47° WSW 20:14:35 45° SW
Cosmos 2219 Rocket 4.0 20:13:14 10° N 20:15:05 20° N 20:15:05 20° N
Cosmos 2333 Rocket 4.3 20:30:41 10° NNW 20:32:10 18° N 20:32:10 18° N
